KE4OGG Weather Reports


Display with metric or nautical units.
time (UTC)temp
F
wind
direction
speed
MPH
gust
MPH
rain 1hr
in
rain 24hr
in
rain mn
in
humidity
%
barometer
mb
20260906174544 95 345 4.0 9.0 0.00 0.00 0.00 38 1012.6
20260906174022 95 300 1.0 5.0 0.00 0.00 0.00 34 1012.8
20260906173523 95 193 1.0 5.0 0.00 0.00 0.00 38 1012.9
20260906173049 96 291 1.0 2.0 0.00 0.00 0.00 35 1012.9
20260906172525 96 122 0.0 2.0 0.00 0.00 0.00 35 1012.9
20260906172028 95 119 0.0 5.0 0.00 0.00 0.00 38 1012.9
20260906171551 94 114 2.0 5.0 0.00 0.00 0.00 38 1013.0
20260906171027 94 298 0.0 3.0 0.00 0.00 0.00 39 1013.1
20260906170525 93 110 0.0 7.0 0.00 0.00 0.00 38 1013.1
20260906170056 93 113 3.0 7.0 0.00 0.00 0.00 38 1013.3
20260906165526 94 296 0.0 5.0 0.00 0.00 0.00 41 1013.4
20260906165024 93 103 2.0 5.0 0.00 0.00 0.00 41 1013.4
20260906164544 93 110 1.0 2.0 0.00 0.00 0.00 42 1013.4
20260906164022 92 329 0.0 4.0 0.00 0.00 0.00 43 1013.4
20260906163522 91 289 1.0 4.0 0.00 0.00 0.00 41 1013.5
20260906163044 92 92 1.0 4.0 0.00 0.00 0.00 41 1013.6
20260906162524 92 119 2.0 4.0 0.00 0.00 0.00 42 1013.7
20260906162026 92 103 2.0 7.0 0.00 0.00 0.00 41 1013.6
20260906161545 92 304 0.0 7.0 0.00 0.00 0.00 43 1013.7
20260906161026 91 94 1.0 7.0 0.00 0.00 0.00 44 1013.7
20260906160526 91 85 2.0 5.0 0.00 0.00 0.00 45 1013.8
20260906160044 91 110 2.0 5.0 0.00 0.00 0.00 41 1013.7
20260906155530 92 293 0.0 2.0 0.00 0.00 0.00 44 1013.7
20260906155024 92 281 0.0 2.0 0.00 0.00 0.00 45 1013.7
20260906154547 92 102 0.0 2.0 0.00 0.00 0.00 44 1013.7
20260906154024 91 104 0.0 4.0 0.00 0.00 0.00 46 1013.7
20260906153525 90 289 1.0 4.0 0.00 0.00 0.00 49 1013.9
20260906153046 91 293 0.0 2.0 0.00 0.00 0.00 48 1013.9
20260906152525 90 293 0.0 2.0 0.00 0.00 0.00 50 1013.9
20260906152028 90 293 0.0 3.0 0.00 0.00 0.00 53 1013.9
20260906151546 88 22 1.0 4.0 0.00 0.00 0.00 54 1014.0
20260906151029 88 297 2.0 4.0 0.00 0.00 0.00 54 1013.9
20260906150524 88 299 1.0 4.0 0.00 0.00 0.00 53 1014.0
20260906150046 88 282 0.0 3.0 0.00 0.00 0.00 55 1014.1
20260906145521 88 303 1.0 3.0 0.00 0.00 0.00 55 1014.1
20260906145021 88 291 0.0 2.0 0.00 0.00 0.00 54 1014.1
20260906144542 88 295 0.0 2.0 0.00 0.00 0.00 56 1014.2
20260906144024 88 287 0.0 2.0 0.00 0.00 0.00 54 1014.2
20260906143524 87 282 1.0 2.0 0.00 0.00 0.00 55 1014.2
20260906143049 87 304 1.0 3.0 0.00 0.00 0.00 53 1014.2
20260906142525 87 299 1.0 3.0 0.00 0.00 0.00 57 1014.3
20260906142027 87 81 0.0 3.0 0.00 0.00 0.00 57 1014.3
20260906141546 87 316 1.0 3.0 0.00 0.00 0.00 56 1014.3
20260906141024 87 293 0.0 3.0 0.00 0.00 0.00 56 1014.3
20260906140527 86 0 0.0 2.0 0.00 0.00 0.00 59 1014.4
20260906140047 85 0 0.0 2.0 0.00 0.00 0.00 59 1014.3
20260906135528 84 0 0.0 1.0 0.00 0.00 0.00 59 1014.3
20260906135027 83 291 0.0 1.0 0.00 0.00 0.00 60 1014.3
20260906134542 83 0 0.0 1.0 0.00 0.00 0.00 61 1014.2
20260906134023 82 0 0.0 1.0 0.00 0.00 0.00 63 1014.2
20260906133525 81 0 0.0 1.0 0.00 0.00 0.00 64 1014.2
20260906133050 80 0 0.0 1.0 0.00 0.00 0.00 65 1014.1
20260906132527 79 0 0.0 0.0 0.00 0.00 0.00 65 1014.1
20260906132025 79 0 0.0 0.0 0.00 0.00 0.00 66 1014.1
20260906131546 78 0 0.0 2.0 0.00 0.00 0.00 67 1014.1
20260906131026 77 310 0.0 2.0 0.00 0.00 0.00 68 1014.2
20260906130526 77 295 0.0 1.0 0.00 0.00 0.00 69 1014.1
20260906130045 76 0 0.0 1.0 0.00 0.00 0.00 69 1014.0
20260906125526 76 0 0.0 1.0 0.00 0.00 0.00 70 1014.0
20260906125026 75 0 0.0 2.0 0.00 0.00 0.00 70 1013.8
20260906124549 75 0 0.0 2.0 0.00 0.00 0.00 71 1013.7
20260906124026 75 19 0.0 0.0 0.00 0.00 0.00 72 1013.7
20260906123525 74 0 0.0 1.0 0.00 0.00 0.00 73 1013.6
20260906123047 74 0 0.0 1.0 0.00 0.00 0.00 73 1013.6
20260906122523 74 337 0.0 1.0 0.00 0.00 0.00 73 1013.6
20260906122023 73 338 0.0 1.0 0.00 0.00 0.00 74 1013.6
20260906121550 73 292 0.0 0.0 0.00 0.00 0.00 76 1013.6
20260906121024 72 0 0.0 0.0 0.00 0.00 0.00 81 1013.5
20260906120523 72 0 0.0 0.0 0.00 0.00 0.00 83 1013.4
20260906120055 72 0 0.0 0.0 0.00 0.00 0.00 84 1013.3
20260906115523 71 0 0.0 0.0 0.00 0.00 0.00 84 1013.3
20260906115023 71 0 0.0 0.0 0.00 0.00 0.00 84 1013.3
20260906114549 71 0 0.0 0.0 0.00 0.00 0.00 84 1013.3
20260906114024 71 0 0.0 0.0 0.00 0.00 0.00 84 1013.2
20260906113528 71 0 0.0 0.0 0.00 0.00 0.00 84 1013.1
20260906113052 71 0 0.0 0.0 0.00 0.00 0.00 84 1013.1
20260906112527 71 0 0.0 0.0 0.00 0.00 0.00 84 1013.1
20260906112027 71 0 0.0 0.0 0.00 0.00 0.00 85 1013.1
20260906111559 70 0 0.0 0.0 0.00 0.00 0.00 84 1013.1
20260906111023 70 0 0.0 0.0 0.00 0.00 0.00 84 1013.1
20260906110524 70 0 0.0 0.0 0.00 0.00 0.00 85 1013.1
20260906110044 70 0 0.0 0.0 0.00 0.00 0.00 84 1013.1
20260906105526 70 0 0.0 0.0 0.00 0.00 0.00 84 1013.0
20260906105023 70 0 0.0 0.0 0.00 0.00 0.00 85 1013.1
20260906104549 70 0 0.0 0.0 0.00 0.00 0.00 85 1013.0
20260906104024 70 0 0.0 0.0 0.00 0.00 0.00 85 1013.0
20260906103524 70 0 0.0 0.0 0.00 0.00 0.00 85 1013.0
20260906103046 70 0 0.0 0.0 0.00 0.00 0.00 84 1013.0
20260906102525 70 0 0.0 0.0 0.00 0.00 0.00 84 1012.9
20260906102029 70 0 0.0 0.0 0.00 0.00 0.00 84 1013.0
20260906101544 70 0 0.0 0.0 0.00 0.00 0.00 84 1012.9
20260906101023 70 0 0.0 0.0 0.00 0.00 0.00 84 1013.0
20260906100526 70 0 0.0 0.0 0.00 0.00 0.00 84 1013.0
20260906100042 70 0 0.0 0.0 0.00 0.00 0.00 84 1012.9
20260906095522 71 0 0.0 0.0 0.00 0.00 0.00 84 1013.0
20260906095024 71 0 0.0 0.0 0.00 0.00 0.00 84 1012.9
20260906094547 71 0 0.0 0.0 0.00 0.00 0.00 84 1012.9
20260906094024 71 0 0.0 0.0 0.00 0.00 0.00 84 1013.0
20260906093527 71 0 0.0 0.0 0.00 0.00 0.00 81 1012.9
20260906093048 71 0 0.0 0.0 0.00 0.00 0.00 81 1012.9
20260906092523 71 0 0.0 0.0 0.00 0.00 0.00 81 1012.9
20260906092024 71 0 0.0 0.0 0.00 0.00 0.00 81 1012.8
20260906091546 71 0 0.0 0.0 0.00 0.00 0.00 81 1012.8
20260906091023 71 0 0.0 0.0 0.00 0.00 0.00 81 1012.8
20260906090523 71 0 0.0 0.0 0.00 0.00 0.00 80 1012.8
20260906090048 71 0 0.0 0.0 0.00 0.00 0.00 80 1013.0
20260906085523 71 0 0.0 0.0 0.00 0.00 0.00 80 1013.0
20260906085023 71 0 0.0 0.0 0.00 0.00 0.00 80 1013.0
20260906084551 71 0 0.0 0.0 0.00 0.00 0.00 80 1012.9
20260906084025 71 0 0.0 0.0 0.00 0.00 0.00 81 1012.9
20260906083524 71 0 0.0 0.0 0.00 0.00 0.00 80 1013.0
20260906083045 71 0 0.0 0.0 0.00 0.00 0.00 79 1012.8
20260906082524 71 0 0.0 0.0 0.00 0.00 0.00 79 1012.9
20260906082026 71 0 0.0 0.0 0.00 0.00 0.00 79 1012.9
20260906081546 71 0 0.0 0.0 0.00 0.00 0.00 79 1012.9
20260906081024 71 0 0.0 0.0 0.00 0.00 0.00 79 1012.8
20260906080524 71 0 0.0 0.0 0.00 0.00 0.00 79 1012.7
20260906080044 71 0 0.0 0.0 0.00 0.00 0.00 79 1012.7
20260906075525 71 0 0.0 0.0 0.00 0.00 0.00 79 1012.6
20260906075025 71 0 0.0 0.0 0.00 0.00 0.00 79 1012.5
20260906074543 71 0 0.0 0.0 0.00 0.00 0.00 79 1012.5
20260906074027 71 0 0.0 0.0 0.00 0.00 0.00 79 1012.7
20260906073527 71 0 0.0 0.0 0.00 0.00 0.00 79 1012.7
20260906073047 71 0 0.0 0.0 0.00 0.00 0.00 79 1012.7
20260906072525 71 0 0.0 0.0 0.00 0.00 0.00 78 1012.8
20260906072023 71 0 0.0 0.0 0.00 0.00 0.00 77 1012.9
20260906071557 71 0 0.0 0.0 0.00 0.00 0.00 75 1012.8
20260906071024 71 0 0.0 0.0 0.00 0.00 0.00 75 1012.9
20260906070524 71 0 0.0 0.0 0.00 0.00 0.00 75 1012.9
20260906070044 71 0 0.0 0.0 0.00 0.00 0.00 75 1012.9
20260906065524 71 0 0.0 0.0 0.00 0.00 0.00 74 1012.8
20260906065024 71 0 0.0 0.0 0.00 0.00 0.00 74 1012.8
20260906064542 72 0 0.0 0.0 0.00 0.00 0.00 74 1012.9
20260906064025 72 0 0.0 0.0 0.00 0.00 0.00 73 1012.9
20260906063524 72 0 0.0 0.0 0.00 0.00 0.00 73 1013.0
20260906063053 72 0 0.0 0.0 0.00 0.00 0.00 73 1013.2
20260906062525 72 0 0.0 0.0 0.00 0.00 0.00 73 1013.3
20260906062025 72 0 0.0 0.0 0.00 0.00 0.00 72 1013.4
20260906061546 72 0 0.0 0.0 0.00 0.00 0.00 72 1013.4
20260906061023 72 0 0.0 0.0 0.00 0.00 0.00 72 1013.5
20260906060523 72 0 0.0 0.0 0.00 0.00 0.00 71 1013.4
20260906060045 72 0 0.0 0.0 0.00 0.00 0.00 71 1013.6
20260906055525 73 0 0.0 0.0 0.00 0.00 0.00 70 1013.5
20260906055024 73 0 0.0 0.0 0.00 0.00 0.00 71 1013.5
20260906054550 73 0 0.0 0.0 0.00 0.00 0.00 72 1013.6
20260906054021 73 0 0.0 1.0 0.00 0.00 0.00 72 1013.7
20260906053525 72 0 0.0 1.0 0.00 0.00 0.00 73 1013.7
20260906053052 72 326 0.0 1.0 0.00 0.00 0.00 73 1013.8
20260906052526 72 0 0.0 0.0 0.00 0.00 0.00 72 1013.9
20260906052028 72 0 0.0 0.0 0.00 0.00 0.00 72 1013.9
20260906051546 72 0 0.0 0.0 0.00 0.00 0.00 72 1013.8
20260906051027 72 0 0.0 0.0 0.00 0.00 0.00 72 1013.9
20260906050526 72 0 0.0 0.0 0.00 0.00 0.00 72 1014.0
20260906050046 72 0 0.0 0.0 0.00 0.00 0.00 70 1014.1
20260906045526 72 0 0.0 0.0 0.00 0.00 0.00 70 1014.0
20260906045024 73 0 0.0 0.0 0.00 0.00 0.00 70 1014.0
20260906044548 73 0 0.0 0.0 0.00 0.00 0.00 70 1014.1
20260906044023 73 0 0.0 0.0 0.00 0.00 0.00 70 1014.1
20260906043525 73 0 0.0 0.0 0.00 0.00 0.00 69 1014.0
20260906043045 73 0 0.0 0.0 0.00 0.00 0.00 69 1013.9
20260906042524 73 0 0.0 0.0 0.00 0.00 0.00 68 1014.0
20260906042024 73 0 0.0 0.0 0.00 0.00 0.00 68 1014.0
20260906041552 73 0 0.0 0.0 0.00 0.00 0.00 68 1014.2
20260906041027 73 0 0.0 0.0 0.00 0.00 0.00 68 1014.3
20260906040524 73 0 0.0 1.0 0.00 0.00 0.00 67 1014.2
20260906040045 73 0 0.0 1.0 0.00 0.00 0.00 67 1014.3
20260906035525 74 0 0.0 1.0 0.00 0.00 0.00 67 1014.3
20260906035021 74 0 0.0 1.0 0.00 0.00 0.00 67 1014.4
20260906034549 74 327 0.0 1.0 0.00 0.00 0.00 67 1014.4
20260906034025 73 0 0.0 1.0 0.00 0.00 0.00 67 1014.3
20260906033524 74 0 0.0 1.0 0.00 0.00 0.00 67 1014.2
20260906033046 74 0 0.0 1.0 0.00 0.00 0.00 67 1014.1
20260906032523 74 318 0.0 1.0 0.00 0.00 0.00 67 1014.1
20260906032025 74 0 0.0 1.0 0.00 0.00 0.00 66 1014.3
20260906031543 74 0 0.0 1.0 0.00 0.00 0.00 66 1014.2
20260906031023 74 0 0.0 0.0 0.00 0.00 0.00 66 1014.3
20260906030523 74 0 0.0 0.0 0.00 0.00 0.00 65 1014.2
20260906030049 74 0 0.0 1.0 0.00 0.00 0.00 65 1014.2
20260906025530 74 0 0.0 2.0 0.00 0.00 0.00 65 1014.2
20260906025025 74 0 0.0 3.0 0.00 0.00 0.00 65 1014.0
20260906024600 74 109 2.0 3.0 0.00 0.00 0.00 65 1014.0
20260906024024 74 0 0.0 0.0 0.00 0.00 0.00 65 1013.9
20260906023525 74 0 0.0 0.0 0.00 0.00 0.00 65 1013.9
20260906023044 74 0 0.0 0.0 0.00 0.00 0.00 65 1014.0
20260906022525 74 0 0.0 0.0 0.00 0.00 0.00 64 1013.8
20260906022028 75 0 0.0 0.0 0.00 0.00 0.00 64 1013.9
20260906021546 75 0 0.0 0.0 0.00 0.00 0.00 64 1014.1
20260906021023 75 0 0.0 0.0 0.00 0.00 0.00 64 1014.1
20260906020524 75 0 0.0 0.0 0.00 0.00 0.00 64 1014.0
20260906020049 75 0 0.0 0.0 0.00 0.00 0.00 63 1013.9
20260906015524 75 0 0.0 0.0 0.00 0.00 0.00 63 1014.1
20260906015025 75 0 0.0 1.0 0.00 0.00 0.00 63 1014.1
20260906014552 75 0 0.0 1.0 0.00 0.00 0.00 62 1014.1
20260906014028 75 307 0.0 1.0 0.00 0.00 0.00 62 1014.0
20260906013522 75 0 0.0 0.0 0.00 0.00 0.00 61 1013.8
20260906013049 76 0 0.0 0.0 0.00 0.00 0.00 61 1013.7
20260906012525 76 0 0.0 0.0 0.00 0.00 0.00 61 1013.7
20260906012024 76 0 0.0 0.0 0.00 0.00 0.00 60 1013.7
20260906011547 76 0 0.0 0.0 0.00 0.00 0.00 60 1013.6
20260906011026 76 0 0.0 0.0 0.00 0.00 0.00 60 1013.5
20260906010527 76 0 0.0 0.0 0.00 0.00 0.00 60 1013.6
20260906010047 76 0 0.0 1.0 0.00 0.00 0.00 60 1013.5
20260906005523 76 0 0.0 1.0 0.00 0.00 0.00 60 1013.5
20260906005028 76 307 1.0 2.0 0.00 0.00 0.00 60 1013.6
20260906004545 77 0 1.0 2.0 0.00 0.00 0.00 60 1013.5
20260906004027 77 0 0.0 1.0 0.00 0.00 0.00 59 1013.3
20260906003527 77 293 0.0 1.0 0.00 0.00 0.00 59 1013.0
20260906003051 77 293 0.0 1.0 0.00 0.00 0.00 59 1013.0
20260906002524 78 0 0.0 0.0 0.00 0.00 0.00 58 1012.8
20260906002022 78 0 0.0 0.0 0.00 0.00 0.00 58 1012.8
20260906001549 78 0 0.0 1.0 0.00 0.00 0.00 57 1013.0
20260906001025 79 0 0.0 2.0 0.00 0.00 0.00 57 1013.1
20260906000526 79 0 1.0 2.0 0.00 0.00 0.00 57 1013.1
20260906000046 79 325 0.0 2.0 0.00 0.00 0.00 57 1012.9
20260905235529 79 0 0.0 2.0 0.00 0.00 0.00 56 1012.8
20260905235024 79 302 0.0 1.0 0.00 0.00 0.00 56 1012.9
20260905234544 80 287 0.0 1.0 0.00 0.00 0.00 56 1012.9
20260905234028 80 287 0.0 3.0 0.00 0.00 0.00 56 1013.0
20260905233524 80 292 1.0 3.0 0.00 0.00 0.00 55 1013.1
20260905233049 80 288 0.0 2.0 0.00 0.00 0.00 54 1013.1
20260905232526 80 320 0.0 2.0 0.00 0.00 0.00 54 1013.1
20260905232027 81 0 0.0 2.0 0.00 0.00 0.00 53 1013.1
20260905231546 81 296 0.0 1.0 0.00 0.00 0.00 53 1013.2
20260905231025 81 0 0.0 1.0 0.00 0.00 0.00 54 1013.2
20260905230524 81 0 0.0 1.0 0.00 0.00 0.00 53 1013.1
20260905230047 81 0 0.0 1.0 0.00 0.00 0.00 54 1013.0
20260905225526 81 298 0.0 1.0 0.00 0.00 0.00 53 1012.9
20260905225024 81 0 0.0 2.0 0.00 0.00 0.00 53 1013.0
20260905224549 81 0 0.0 2.0 0.00 0.00 0.00 53 1012.8
20260905224025 81 12 1.0 2.0 0.00 0.00 0.00 53 1012.9
20260905223525 81 288 0.0 2.0 0.00 0.00 0.00 54 1012.9
20260905223046 81 292 1.0 2.0 0.00 0.00 0.00 53 1012.9
20260905222528 81 291 1.0 3.0 0.00 0.00 0.00 53 1012.9
20260905222024 81 342 1.0 3.0 0.00 0.00 0.00 53 1013.0
20260905221546 81 12 1.0 3.0 0.00 0.00 0.00 55 1012.9
20260905221028 81 353 0.0 4.0 0.00 0.00 0.00 55 1013.0
20260905220524 81 290 0.0 4.0 0.00 0.00 0.00 55 1013.1
20260905220045 81 276 2.0 4.0 0.00 0.00 0.00 55 1013.1
20260905215522 81 350 1.0 2.0 0.00 0.00 0.00 54 1013.0
20260905215028 81 299 1.0 2.0 0.00 0.00 0.00 54 1013.1
20260905214547 82 0 0.0 1.0 0.00 0.00 0.00 54 1013.1
20260905214025 82 0 0.0 2.0 0.00 0.00 0.00 54 1013.3
20260905213525 82 0 0.0 3.0 0.00 0.00 0.00 54 1013.3
20260905213047 82 279 1.0 3.0 0.00 0.00 0.00 52 1013.3
20260905212529 83 302 0.0 3.0 0.00 0.00 0.00 52 1013.5
20260905212024 83 27 0.0 3.0 0.00 0.00 0.00 52 1013.6
20260905211545 83 298 1.0 3.0 0.00 0.00 0.00 51 1013.6
20260905211027 83 50 1.0 4.0 0.00 0.00 0.00 49 1013.6
20260905210527 83 310 1.0 4.0 0.00 0.00 0.00 49 1013.5
20260905210043 83 281 1.0 4.0 0.00 0.00 0.00 51 1013.4
20260905205523 82 0 0.0 2.0 0.00 0.00 0.00 52 1013.4
20260905205022 82 217 0.0 2.0 0.00 0.00 0.00 54 1013.3
20260905204557 81 63 0.0 2.0 0.00 0.00 0.00 54 1013.1
20260905204025 81 63 1.0 2.0 0.00 0.00 0.00 55 1013.2
20260905203529 81 0 0.0 2.0 0.00 0.00 0.00 53 1013.5
20260905203054 82 63 1.0 4.0 0.00 0.00 0.00 51 1013.5
20260905202524 82 0 0.0 4.0 0.00 0.00 0.00 50 1013.7
20260905202024 82 63 2.0 4.0 0.00 0.00 0.00 50 1013.7
20260905201545 82 25 1.0 3.0 0.00 0.00 0.00 50 1013.7
20260905201028 82 328 0.0 5.0 0.00 0.00 0.00 49 1013.7
20260905200522 82 61 1.0 8.0 0.00 0.00 0.00 49 1013.6
20260905200052 82 265 1.0 8.0 0.00 0.00 0.00 50 1013.8
20260905195525 82 105 1.0 5.0 0.00 0.00 0.00 50 1014.2
20260905195023 82 49 1.0 7.0 0.00 0.00 0.00 50 1014.3
20260905194549 83 36 2.0 7.0 0.00 0.00 0.00 49 1014.1
20260905194025 83 295 2.0 9.0 0.00 0.00 0.00 48 1014.0
20260905193526 83 300 2.0 9.0 0.00 0.00 0.00 47 1014.1
20260905193053 84 276 3.0 8.0 0.00 0.00 0.00 46 1014.2
20260905192526 85 304 3.0 8.0 0.00 0.00 0.00 45 1014.2
20260905192025 86 209 3.0 10.0 0.00 0.00 0.00 42 1014.1
20260905191552 88 283 3.0 13.0 0.00 0.00 0.00 40 1014.0
20260905191023 89 150 4.0 13.0 0.00 0.00 0.00 38 1013.9
20260905190525 91 149 3.0 11.0 0.00 0.00 0.00 35 1013.9
20260905190049 95 344 4.0 10.0 0.00 0.00 0.00 32 1014.0
20260905185527 97 271 0.0 3.0 0.00 0.00 0.00 30 1013.6
20260905185028 97 295 0.0 3.0 0.00 0.00 0.00 29 1013.2
20260905184550 98 0 0.0 4.0 0.00 0.00 0.00 27 1013.1
20260905184025 98 281 1.0 4.0 0.00 0.00 0.00 28 1013.1
20260905183525 99 240 1.0 6.0 0.00 0.00 0.00 28 1013.3
20260905183046 98 98 1.0 6.0 0.00 0.00 0.00 29 1013.4
20260905182524 98 98 3.0 6.0 0.00 0.00 0.00 30 1013.2
20260905182026 99 260 0.0 6.0 0.00 0.00 0.00 30 1013.1
20260905181546 99 89 3.0 6.0 0.00 0.00 0.00 29 1013.3
20260905181024 99 349 0.0 4.0 0.00 0.00 0.00 32 1013.4
20260905180525 99 97 2.0 4.0 0.00 0.00 0.00 32 1013.6
20260905180053 98 262 0.0 5.0 0.00 0.00 0.00 33 1013.7
20260905175525 97 295 2.0 5.0 0.00 0.00 0.00 33 1013.7
20260905175022 98 109 2.0 5.0 0.00 0.00 0.00 29 1013.7